Regional Weather Roundup
Issued by NWS Grand Forks, ND

Home | Current Version | Previous Version | Graphics & Text | Print | Product List | Glossary On
Versions: 1 2 3 4 5 6 7 8 9 10 11 12 13 14 15 16 17 18 19 20 21 22 23 24 25 26 27 28 29 30 31 32 33 34 35 36 37 38 39 40 41 42 43 44 45 46 47 48 49 50
000
ASUS43 KFGF 220331
RWRFGF
PRAIRIE TO PINES  WEATHER ROUNDUP
NATIONAL WEATHER SERVICE EASTERN NORTH DAKOTA/GRAND FORKS ND
1000 PM CDT SUN SEP 21 2014

 **SATELLITE DATA USED TO AUGMENT SKY COVER AT AUTOMATED STATIONS**
 *****  WEATHER ACROSS EASTERN NORTH DAKOTA  *****

CITY           SKY/WX    TMP DP  RH WIND       PRES   REMARKS
GRAND FORKS    CLEAR     52  48  86 S8        30.19R
GRAND FRKS AFB CLEAR     51  50  97 S6        30.19S
GRAND FRKS NWS   N/A     52 N/A N/A S3          N/A
DEVILS LAKE    CLEAR     52  45  76 SW3       30.18S
FARGO          CLEAR     53  48  83 SE6       30.21S
WAHPETON ARPT  CLEAR     50  45  81 SE6       30.23S
$$

 ***** WEATHER ACROSS CENTRAL AND WESTERN NORTH DAKOTA  *****

CITY           SKY/WX    TMP DP  RH WIND       PRES   REMARKS
BISMARCK       CLEAR     53  45  74 E3        30.22S
MINOT          CLEAR     55  43  63 SW8       30.17F
JAMESTOWN      CLEAR     50  46  86 CALM      30.21S
MINOT AFB      CLEAR     53  44  69 SW7       30.16F
GARRISON         N/A     52  44  74 CALM      30.19F
WILLISTON      CLEAR     54  39  57 CALM      30.17S
DICKINSON      CLEAR     46  37  71 SE7       30.20S
HETTINGER      CLEAR     56  36  47 SE6       30.24R
$$

 *****  OTHER AIRPORT OBSERVATIONS IN OUR AREA  *****

CITY           SKY/WX    TMP DP  RH WIND       PRES   REMARKS
WALHALLA         N/A     52  52 100 CALM      30.16S
GRAFTON AIRPOR FAIR      48  48 100 S7        30.17S
VALLEY CITY AR FAIR      52  52 100 S3        30.22S
CANDO          FAIR      48  45  87 SW3       30.19S
CAVALIER APRT  FAIR      54  50  87 S6        30.16F
GWINNER        CLEAR     52  48  87 SW8       30.24S
SHEYENNE NWR     N/A     48  46  93 SE2       29.95S
ROLLA          FAIR      45  45 100 SW8       30.19S
 ***** THE ABOVE OBSERVATIONS ARE NON NWS ARE NOT QUALITY
       CONTROLLED AND MAY MIS-REPORT RAIN FOR SNOW...
$$

  *****  WEATHER ACROSS NORTHERN MINNESOTA  *****

CITY           SKY/WX    TMP DP  RH WIND       PRES   REMARKS
FLAG ISLAND    CLEAR     54  50  87 SW8       30.13F
WARROAD        CLEAR     52  46  82 S6        30.17S
ROSEAU         CLEAR     48  45  87 SW6       30.17F
HALLOCK        CLEAR     48  46  93 S6        30.16S
THF RVR FALLS  CLEAR     48  46  93 CALM      30.19S
BAUDETTE       CLOUDY    52  49  89 VRB3      30.17S
WASKISH        PTCLDY    55  52  88 CALM      30.20R
CROOKSTON      CLEAR     48  48 100 S5        30.20S
STEPHEN NDAWN    N/A     48  46  93 S3          N/A
GREENBUSH NDAW   N/A     50  48  93 S3          N/A
$$
  *****  WEATHER ACROSS CENTRAL AND WEST MINNESOTA  *****

CITY           SKY/WX    TMP DP  RH WIND       PRES   REMARKS
FOSSTON        CLEAR     45  43  93 CALM      30.22S
BEMIDJI        CLEAR     51  48  89 SW5       30.21S
PARK RAPIDS    CLEAR     46  44  93 W3        30.22S
ELBOW LAKE     FAIR      51  48  89 CALM      30.24S
WADENA           N/A     45  45 100 CALM      30.23S FOG
DETROIT LAKES    N/A     48  46  93 CALM      30.24S FOG
MOORHEAD       CLEAR     54  52  94 SE5       30.23S
FERGUS FALLS   CLEAR     52  48  87 CALM      30.24S
MORRIS MN      CLEAR     50  48  93 CALM      30.24S
STAPLES        CLEAR     46  45  93 CALM      30.24R
$$
  *****  WEATHER ELSEWHERE ACROSS MINNESOTA  *****

CITY           SKY/WX    TMP DP  RH WIND       PRES   REMARKS
DULUTH         CLEAR     49  43  80 W3        30.18S
INTRNTL FALLS  MOCLDY    50  47  89 W3        30.16S
ELY            CLOUDY    45  43  93 CALM      30.16S
CLOQUET        CLEAR     45  43  93 W5        30.19S
WHEATON        CLEAR     46  45  93 SE5       30.26S
BRAINERD       CLEAR     52  48  86 NW5       30.23R
HIBBING        PTCLDY    44  42  93 CALM      30.18S
ALEXANDRIA     CLEAR     49  47  93 CALM      30.25S
SAINT CLOUD    CLEAR     54  49  83 NW7       30.23R
MINNEAPOLIS    CLEAR     55  48  77 W5        30.21R
$$

  *****  WEATHER ACROSS SOUTH DAKOTA  *****

CITY           SKY/WX    TMP DP  RH WIND       PRES   REMARKS
SIOUX FALLS    CLEAR     54  47  77 CALM      30.26R
BROOKINGS      NOT AVBL
WATERTOWN      CLEAR     50  44  80 CALM      30.25S
HURON          CLEAR     53  45  74 SE5       30.25R
SISSETON         N/A     48  47  96 CALM      30.23R
ABERDEEN       CLEAR     50  45  83 SE3       30.24R
MITCHELL       CLEAR     57  48  72 E3        30.26R
PIERRE         CLEAR     56  41  57 NE5       30.23S
MOBRIDGE       CLEAR     52  45  77 SE5       30.21S
RAPID CITY     PTCLDY    50  39  66 CALM      30.26R
$$

  *****  SOME WEATHER IN NEARBY STATES *****

CITY           SKY/WX    TMP DP  RH WIND       PRES   REMARKS
GLASGOW MT     CLEAR     57  38  48 E10       30.11R
GREAT FALLS MT PTCLDY    63  47  55 SE5       30.03S
CHEYENNE WY    CLOUDY    60  41  49 SE10      30.35R
SCOTTSBLUFF NE MOCLDY    60  44  55 SE10      30.29R
OMAHA NE       CLEAR     57  51  80 N3        30.26R
DES MOINES IA  CLEAR     60  49  66 N6        30.23R
DAVENPORT IA   CLEAR     51  45  79 N6        30.17R
CHICAGO IL     PTCLDY    57  47  69 N3        30.13R
EAU CLAIRE WI  CLEAR     47  44  90 CALM      30.19R
LA CROSSE WI   CLEAR     54  46  74 N5        30.19R
$$

  *****  SOME NATIONAL WEATHER *****

CITY           SKY/WX    TMP DP  RH WIND       PRES   REMARKS
LA GUARDIA NY  MOCLDY    72  67  84 SW9       29.62S
RALEIGH NC     LGT RAIN  72  66  81 W9G20     29.87R
ATLANTA GA     PTCLDY    75  62  64 SW7       29.99R
NEW ORLEANS LA PTCLDY    80  66  62 SE3       30.01R
OKLAHOMA CITY  PTCLDY    73  56  54 NE9       30.19R
ALBUQUERQUE NM MOCLDY    71  54  54 E14       30.27R
SALT LAKE CITY MOCLDY    63  56  78 E7        30.14R
LOS ANGELES CA PTCLDY    68  62  81 W13       29.94S
BOISE ID       CLOUDY    69  55  60 SE14      30.03R
SEATTLE WA     MOCLDY    66  56  70 SW10      29.90R
$$

*** WEATHER ACROSS MANITOBA...SASKATCHEWAN AND ONTARIO ***
                ***ONTARIO***

CITY           SKY/WX    TMP DP  RH WIND       PRES   REMARKS
GERALDTON      CLEAR     34  34 100 SW5       30.08F
THUNDER BAY    CLEAR     39  37  93 W5        30.12S
SIOUX LOOKOUT  CLOUDY    54  50  87 W5        30.10S
TORONTO        MOCLDY    52  46  82 NW24      29.75R
BIG TROUT LK   CLEAR     50  41  71 SW10      29.91F
PICKLE LAKE    NOT AVBL
DRYDEN         CLOUDY    54  48  82 W7        30.12S
KENORA         PTCLDY    52  48  87 W6        30.14F
$$
                *** MANITOBA***

CITY           SKY/WX    TMP DP  RH WIND       PRES   REMARKS
BRANDON        CLEAR     52  46  82 SW7       30.13F
DAUPHIN        CLEAR     59  45  58 SW10      30.05F
ISLAND LAKE    PTCLDY    52  48  87 W3        29.95F
PILOT MOUND    NOT AVBL
THE PAS        CLEAR     63  46  55 SW7       29.89F
THOMPSON       MOCLDY    52  48  87 SW6       29.81S
WINNIPEG       CLEAR     55  50  82 S10       30.13F
LYNN LAKE      PTCLDY    57  50  77 SW9       29.77F
CHURCHILL      LGT RAIN  43  41  93 E6        29.74F
GILLAM         CLEAR     48  48 100 SW9       29.79F
$$
                ***SASKATCHEWAN***

CITY           SKY/WX    TMP DP  RH WIND       PRES   REMARKS
ESTEVAN        CLEAR     50  43  76 S3        30.16S
KINDERSLEY     PTCLDY    59  43  55 SE12      29.99F
LLOYDMINSTER   PTCLDY    61  45  55 S10       29.93F
PRINCE ALBERT  PTCLDY    63  48  59 SW6       29.96S
REGINA         CLEAR     54  45  71 S8        30.10F
YORKTON        CLEAR     59  45  58 SW10      30.08S
N. BATTLEFORD  CLEAR     55  43  62 SE8       29.99F
LA RONGE       CLEAR     64  50  59 SW6       29.87S
SASKATOON      PTCLDY    59  45  58 S7        30.02F
SWIFT CURRENT  CLEAR     54  41  62 SE9       30.07F
$$
NOTE: THESE ARE AUTOMATED STATIONS WITH LIMITED QUALITY CONTROL
      "FAIR" INDICATES FEW OR NO CLOUDS BELOW 12,000 FEET WITH NO
      SIGNIFICANT WEATHER AND/OR OBSTRUCTIONS TO VISIBILITY.
      SKY/WX - SKY CONDITION AND SIGNIFICANT WEATHER.
      TMP - AIR TEMPERATURE.    DP   - DEWPOINT TEMPERATURE.
      RH  - RELATIVE HUMIDITY.  PRES - PRESSURE.
      HX  - HEAT INDEX.         WCI  - WIND CHILL INDEX.
$



USA.gov is the U.S. government's official web portal to all federal, state and local government web resources and services.